Theta_e
321 322 322 322 322 322 321 321 321 320 320 320 320 320 321 323 322 322 322 323 326 326 324 324 325 325 325 326 326 327 327 326 327 327 327 327 328 328 328 328 327 327 326 327 327 328 331 331 328 326 323 323 325 325 325 326 324 323 321 319 318 319 319
321 322 322 322 321 321 320 320 320 320 320 320 320 318 319 322 322 322 322 323 325 324 323 324 324 324 324 325 325 325 325 326 326 327 327 327 327 327 327 327 327 327 326 326 326 325 327 329 330 327 319 315 319 321 323 324 323 322 319 318 318 318 317
322 322 322 321 320 320 320 320 320 320 319 319 318 316 316 319 319 319 319 320 322 322 322 322 322 323 323 323 324 324 325 325 324 324 323 324 325 326 327 327 327 326 323 320 320 322 323 322 324 323 315 313 315 315 315 316 316 317 317 317 319 319 317
322 321 321 320 321 321 320 319 318 317 316 316 316 316 314 315 315 314 313 312 314 316 316 317 318 319 321 322 322 322 323 322 319 318 318 319 320 322 323 323 322 320 317 315 314 315 317 316 319 318 313 312 314 313 312 313 313 314 314 315 317 318 318
321 320 321 321 321 321 320 317 315 314 314 314 314 314 314 314 314 313 311 311 312 311 310 310 313 314 316 319 321 321 320 319 317 317 316 316 317 317 316 316 316 315 314 314 314 313 313 314 316 314 311 312 314 312 311 313 313 314 314 313 314 314 316
320 319 321 323 322 321 319 316 314 313 313 313 313 313 313 314 314 312 312 313 313 311 308 307 307 308 309 312 316 318 318 317 316 316 316 315 315 315 314 312 312 312 313 313 313 313 314 313 313 312 311 313 313 312 312 312 313 313 313 313 313 312 313
320 319 320 322 322 320 317 315 314 312 311 311 311 311 312 312 312 312 314 314 313 310 308 306 305 305 305 305 308 310 313 314 313 313 314 313 313 312 312 311 311 311 311 312 312 312 313 313 312 312 313 313 313 311 311 312 313 313 312 312 313 312 311
319 318 320 322 321 319 316 315 314 311 309 308 308 310 311 311 311 313 314 314 313 312 310 306 305 305 304 303 303 304 306 308 310 312 312 312 311 309 308 308 309 310 310 309 309 309 310 312 312 312 312 314 316 314 312 312 312 312 312 311 312 312 310
319 318 320 321 320 317 316 316 314 311 309 308 309 311 311 311 311 312 314 314 314 315 313 309 306 305 304 303 303 303 304 304 306 310 312 311 310 309 308 307 307 308 308 307 305 305 308 311 312 311 311 312 315 317 315 316 315 312 311 310 310 310 308
319 318 319 321 320 317 317 317 314 312 311 309 310 312 312 311 308 309 312 314 315 315 315 314 310 305 304 304 305 304 304 304 304 307 310 311 311 310 311 311 308 307 309 308 307 307 308 309 310 310 310 309 311 315 317 319 318 313 311 310 309 309 307
319 317 318 320 320 318 318 318 315 314 313 311 310 312 312 311 308 306 307 311 314 314 314 314 311 307 305 305 306 306 305 304 303 304 306 308 310 311 311 311 309 307 309 310 310 309 309 309 309 309 309 309 309 311 312 315 316 313 310 310 309 308 307
319 317 318 319 319 319 319 318 317 315 315 313 311 311 312 311 308 306 305 306 309 312 312 312 311 309 307 307 307 307 309 308 305 305 306 306 308 310 310 309 308 307 307 310 310 310 309 309 309 309 309 310 309 310 310 310 312 311 309 308 308 307 307
320 319 318 319 319 319 319 319 318 317 316 315 313 311 312 311 309 307 305 305 306 307 309 311 312 311 310 310 308 308 310 309 307 306 307 307 307 309 309 309 308 307 307 308 309 309 308 308 309 309 310 310 309 309 309 309 310 309 308 307 307 307 307
320 319 319 319 319 319 320 320 319 318 317 317 315 313 312 311 309 308 307 306 306 306 307 310 311 310 311 312 311 309 309 309 309 309 308 308 308 308 309 309 310 309 307 305 306 308 308 308 308 308 309 309 308 307 307 307 307 307 307 307 307 306 306
320 320 320 320 320 320 320 320 320 319 318 318 317 316 314 313 312 310 309 308 308 307 307 307 308 309 310 312 312 311 311 310 311 312 311 310 309 308 309 309 309 310 309 306 304 306 308 307 307 308 308 307 307 306 306 306 306 306 306 306 306 305 305
320 320 321 320 320 321 320 320 319 319 318 319 318 318 317 316 315 314 312 312 311 311 310 309 308 309 309 310 311 312 312 310 311 312 313 312 311 309 308 308 309 309 309 308 305 305 307 307 308 308 307 307 306 306 305 305 304 304 304 304 304 304 303
320 320 321 322 321 321 321 320 319 320 319 319 319 318 318 317 317 316 315 315 314 314 313 312 311 310 310 310 310 311 312 311 310 311 312 313 312 311 309 309 309 309 309 309 307 305 306 308 308 308 308 307 306 305 304 304 303 303 302 302 302 302 301
320 320 321 322 322 321 321 320 320 320 319 319 319 319 318 318 318 318 317 317 317 316 316 314 314 313 313 312 311 311 311 311 312 312 312 312 313 312 311 311 310 310 309 309 309 307 306 307 308 308 307 306 304 303 302 301 300 300 300 299 299 298 296
321 321 320 322 322 321 321 321 321 321 320 320 319 318 319 318 318 318 318 318 319 318 317 316 316 316 316 315 313 312 312 312 312 313 312 312 312 312 312 311 311 310 309 309 309 308 307 306 307 307 306 305 302 299 297 297 297 297 297 296 295 295 295
321 322 322 322 321 321 321 322 322 321 321 321 320 320 320 319 319 319 318 319 319 319 318 318 318 318 317 317 316 315 314 313 313 313 314 312 312 312 311 310 311 310 309 309 308 307 306 306 306 306 305 303 300 298 295 294 295 295 295 295 295 296 296
321 322 323 322 321 320 320 321 322 322 321 320 320 321 321 321 320 319 319 319 319 319 319 318 318 319 319 318 317 316 315 315 314 314 314 313 312 312 311 311 310 310 309 308 307 307 307 305 305 305 304 302 300 298 295 293 294 295 296 296 296 296 296
320 320 321 320 320 320 319 321 323 322 321 320 320 320 320 320 320 319 320 320 320 319 319 319 318 319 319 318 318 317 316 316 315 315 315 314 313 312 312 311 310 309 309 308 307 306 306 304 304 304 303 302 300 298 296 295 296 297 297 297 296 296 296
320 320 321 320 321 321 321 322 322 322 322 321 321 320 320 320 320 320 319 320 319 320 319 319 319 319 318 318 318 318 317 316 316 315 315 315 313 312 312 311 310 309 309 308 307 306 305 304 304 303 302 301 300 298 298 298 298 298 298 297 297 297 297
323 323 324 323 322 322 321 321 321 321 320 320 319 319 320 320 321 321 320 320 320 320 320 320 320 320 319 319 318 318 318 317 316 316 315 315 313 312 312 311 310 310 309 308 306 305 304 303 303 302 302 302 300 299 299 299 299 298 298 297 297 297 297
322 322 322 320 319 318 318 318 319 318 318 319 319 320 320 321 322 322 322 322 321 321 321 321 321 320 320 319 319 319 318 317 317 316 315 315 314 313 312 311 310 310 309 308 306 305 304 303 303 302 302 302 301 300 300 300 299 299 298 297 297 297 297
316 316 317 317 316 315 316 317 318 318 318 319 319 320 320 320 320 321 321 321 321 321 320 320 321 321 321 320 319 319 319 318 316 316 315 315 314 313 312 310 309 308 308 307 305 304 303 303 303 303 302 301 301 301 300 300 300 299 298 298 297 297 297
313 312 314 313 311 311 311 313 314 314 315 316 317 319 319 319 318 319 319 319 318 318 317 317 318 320 321 321 320 319 319 318 316 316 315 314 313 312 310 309 309 308 307 306 304 304 304 303 303 302 302 301 301 301 301 300 300 299 298 298 297 297 297
310 310 310 309 308 308 308 309 309 309 311 312 314 315 316 316 316 315 316 317 317 316 315 315 316 317 318 319 319 318 318 317 316 315 314 313 312 311 310 309 309 308 306 305 304 304 303 303 302 302 301 301 301 301 301 300 300 299 298 297 297 297 296
308 308 308 307 307 307 307 307 308 308 309 309 310 311 312 313 314 313 313 314 316 316 315 315 315 316 317 317 317 318 317 316 314 313 313 312 310 309 309 308 306 305 305 304 303 302 302 302 301 301 301 301 301 300 300 299 298 298 297 297 297 296 296
307 307 307 306 306 306 307 307 307 307 307 307 308 309 309 310 311 312 313 313 314 315 315 316 316 316 317 317 316 316 315 313 312 311 310 309 308 306 306 305 304 303 303 303 302 302 301 301 301 300 300 300 299 299 298 298 297 297 297 296 296 296 295
308 307 307 306 306 306 306 306 306 306 305 305 306 306 307 307 308 310 311 312 312 313 314 316 316 316 317 316 315 314 313 311 309 308 307 305 305 304 304 303 303 303 302 302 301 301 301 300 300 300 299 298 298 297 297 296 295 295 295 295 294 294 293
307 307 307 306 306 307 307 306 306 306 305 305 305 305 305 306 306 307 309 310 311 311 312 315 316 316 316 315 314 313 311 309 308 306 305 304 303 303 303 303 303 302 302 302 301 300 299 299 299 298 297 297 296 295 295 294 293 293 293 292 292 292 292
306 306 307 307 307 306 306 306 306 306 307 306 305 305 305 306 306 307 308 309 311 311 312 314 315 314 313 312 312 311 310 308 307 305 304 304 303 302 302 302 302 301 301 300 299 298 298 297 297 297 296 295 294 294 293 292 292 292 291 291 292 291 292
306 305 305 305 306 305 306 306 307 307 308 307 307 307 307 307 307 307 309 310 311 312 313 314 313 311 310 309 309 309 308 306 305 304 303 303 302 301 300 300 299 298 298 297 297 296 296 296 296 295 294 294 293 292 292 292 292 291 291 291 291 291 291
305 305 305 305 305 305 306 306 307 308 308 308 308 307 307 307 307 309 309 310 311 312 312 312 311 308 307 307 307 307 306 304 303 303 302 300 299 298 297 297 297 296 296 296 296 295 295 295 294 294 293 293 292 292 292 291 291 291 291 291 291 291 291
305 305 305 305 305 305 305 306 307 307 308 308 307 307 307 307 308 308 308 309 310 310 309 308 307 305 305 305 304 303 303 301 300 300 299 298 297 296 296 296 296 296 296 295 295 294 294 293 293 293 292 292 292 292 291 291 291 290 290 290 290 290 290
305 305 305 304 304 304 304 304 305 306 306 306 306 306 307 308 308 307 307 307 307 307 305 304 303 303 303 302 302 301 301 299 298 298 298 297 296 295 295 295 296 295 295 294 293 293 293 293 293 293 292 292 291 291 291 290 290 290 290 290 290 290 290
Wind_Speed
20 20 19 18 17 16 15 13 10 9 8 8 8 7 8 10 10 10 10 10 13 13 12 12 12 11 11 10 9 8 7 7 7 8 10 10 9 9 9 6 3 2 2 2 2 2 2 0 2 3 3 3 3 4 5 6 6 7 7 7 7 6 5
20 21 20 19 17 17 16 14 12 11 10 9 9 9 10 12 13 13 12 13 15 14 12 12 12 11 10 10 11 11 10 8 7 6 8 8 7 9 10 8 5 4 4 4 3 2 3 2 1 2 5 5 4 5 5 3 5 7 8 8 8 6 4
22 22 20 19 19 18 17 15 14 12 11 10 10 11 13 14 14 13 12 13 14 12 11 11 11 10 9 9 10 11 11 11 10 9 9 8 7 8 9 9 8 7 5 5 5 4 3 3 2 1 4 5 4 5 7 6 6 7 8 10 10 9 8
25 24 22 22 21 19 18 17 14 13 12 12 13 13 14 14 14 12 11 11 11 11 10 9 9 9 9 9 9 10 11 12 12 12 11 11 11 11 10 10 9 9 7 7 7 7 5 4 3 1 4 5 3 4 6 6 9 12 10 7 5 5 6
26 25 25 24 22 21 19 17 15 15 14 14 14 15 15 14 12 11 11 11 12 11 11 9 8 8 9 10 10 10 11 12 12 11 11 11 11 12 12 11 10 10 9 9 7 7 6 5 4 2 4 5 3 4 6 7 12 17 17 17 15 13 13
26 25 25 25 23 21 19 18 18 17 16 15 15 15 15 14 12 12 12 12 11 11 11 11 10 9 9 11 12 11 11 10 9 9 10 10 9 10 11 10 9 8 8 8 6 6 6 5 5 4 3 4 3 4 6 7 9 12 14 16 15 15 16
27 25 25 24 23 21 20 20 19 18 17 16 16 17 16 14 14 14 14 13 12 11 11 11 11 11 11 12 12 11 11 10 9 10 11 11 10 9 9 8 8 8 8 6 5 6 5 5 7 7 5 3 3 5 6 6 6 7 10 12 10 12 15
26 24 25 24 23 21 20 21 20 18 17 17 17 17 16 16 16 16 15 14 13 12 12 11 12 12 12 12 12 12 11 10 10 12 12 11 11 10 9 7 7 7 6 5 4 4 4 5 7 8 7 5 3 5 5 6 6 7 11 11 8 11 16
25 24 24 24 23 21 20 20 19 18 18 18 18 17 16 15 15 16 16 15 14 12 11 10 10 11 12 12 12 12 11 11 11 13 12 11 11 10 9 8 7 6 6 6 6 5 4 5 6 6 8 7 4 3 4 5 4 3 9 13 9 11 18
24 24 25 25 23 21 20 19 18 18 18 19 19 18 16 14 14 15 17 16 14 12 11 10 9 10 10 10 10 11 11 10 11 11 11 10 10 9 8 8 8 8 8 9 10 9 8 6 5 5 6 6 5 3 1 3 4 2 6 13 10 13 19
25 25 25 25 24 24 22 20 19 19 19 19 19 18 17 14 13 14 16 16 15 13 12 10 8 9 9 9 9 9 10 9 10 10 9 9 9 7 6 7 7 7 7 7 8 8 8 6 6 6 6 6 5 4 2 1 3 2 5 12 12 15 19
26 26 25 25 25 26 25 23 21 20 19 19 18 18 18 16 15 15 15 15 15 14 12 10 8 8 8 7 7 7 7 7 7 9 8 8 8 7 6 6 6 5 5 4 5 5 5 4 4 5 6 5 6 6 4 1 1 3 8 12 13 15 15
26 26 25 25 26 26 26 25 23 21 20 19 18 18 18 17 16 16 15 15 15 15 13 11 10 9 8 7 7 7 7 6 5 6 5 6 8 8 6 5 4 4 4 3 3 3 3 3 3 4 4 4 5 6 6 4 2 6 10 11 12 14 14
25 26 25 25 26 26 26 25 24 22 21 20 19 18 18 17 16 16 16 16 16 15 14 13 12 11 11 9 8 8 8 8 7 5 4 4 6 6 5 4 3 2 3 2 2 2 2 3 3 4 3 3 4 5 6 7 5 8 11 12 13 14 15
25 25 26 27 27 26 26 26 24 24 23 22 21 19 18 17 16 16 16 16 16 16 16 15 15 14 14 12 11 10 10 10 9 8 7 6 6 5 4 3 3 2 1 2 1 2 1 1 2 3 3 3 3 5 6 8 8 8 12 16 16 16 17
27 25 26 28 28 26 26 26 25 24 24 23 22 21 19 18 17 16 16 16 16 17 16 17 16 15 15 15 14 13 13 12 12 11 10 9 8 7 5 4 4 3 2 1 1 1 1 1 2 2 3 3 4 5 6 8 9 8 10 15 17 18 20
29 25 23 24 26 25 24 25 25 25 24 24 23 23 22 20 19 18 17 16 16 16 16 16 16 16 15 16 16 16 15 15 14 14 13 12 11 9 7 6 6 5 4 3 2 1 1 2 3 3 4 5 6 7 8 8 9 8 9 13 15 17 19
28 25 22 20 20 20 22 23 24 25 25 25 25 25 24 23 21 21 20 18 17 17 17 17 17 17 17 17 17 17 16 16 16 16 15 14 14 13 11 9 8 7 6 5 4 3 3 4 5 5 6 7 8 8 9 9 9 9 10 13 15 17 18
25 25 23 20 18 20 23 23 22 22 22 22 25 27 26 24 24 23 22 20 19 19 19 19 18 18 18 19 19 18 18 18 18 17 17 16 15 15 13 11 10 10 8 6 6 6 6 6 6 7 8 8 10 12 13 11 11 10 11 12 14 16 18
24 24 23 21 21 22 24 21 19 20 19 18 23 26 25 24 24 24 23 23 22 22 22 22 21 21 21 22 21 20 20 19 19 19 18 17 16 16 15 13 12 12 10 8 8 8 7 7 8 8 8 9 12 15 14 12 11 11 12 13 13 15 17
23 22 21 21 20 22 22 20 18 18 18 18 20 20 19 20 20 21 22 23 24 24 24 24 24 24 24 24 24 23 22 21 21 20 20 19 18 17 16 14 15 14 12 10 10 10 9 9 8 8 8 9 12 14 13 12 11 11 12 13 14 15 17
20 19 19 20 21 23 23 21 19 17 16 17 17 16 15 15 16 17 19 21 22 24 24 23 23 24 24 24 26 26 26 24 23 23 23 22 20 18 17 16 16 16 13 11 10 10 10 9 8 7 8 9 11 11 10 9 9 10 12 14 15 16 18
16 16 16 17 20 22 22 21 19 18 17 16 16 15 15 15 16 17 18 19 20 22 23 23 22 22 23 23 24 26 27 27 26 25 25 24 22 21 19 19 18 17 14 12 11 10 10 9 9 8 8 9 10 8 7 7 7 8 10 12 13 14 16
14 14 14 15 15 16 16 15 13 13 13 13 12 12 13 14 14 15 16 17 18 19 20 20 20 21 22 22 22 23 25 27 28 27 27 26 25 23 22 21 20 18 15 12 11 10 10 10 9 8 8 9 9 7 7 7 7 7 8 10 11 12 14
13 13 13 12 11 10 10 9 8 8 8 8 8 10 11 13 13 14 14 14 14 15 15 15 15 17 19 21 21 22 23 25 27 28 28 27 26 25 25 23 20 18 15 12 11 10 10 11 11 9 9 9 9 8 8 9 9 9 10 10 12 13 13
12 11 11 10 9 8 8 8 8 8 8 8 10 11 11 11 12 12 12 11 10 10 10 11 11 12 14 16 18 20 22 24 26 27 28 28 27 28 26 23 20 16 14 12 11 11 11 11 11 10 9 9 9 9 10 11 11 12 12 13 14 15 15
12 10 10 9 8 7 6 6 6 5 5 6 8 10 9 9 9 9 9 9 8 8 8 9 10 10 12 14 16 18 21 23 24 25 26 27 27 27 25 21 17 13 12 12 12 12 12 12 11 11 9 9 10 10 12 12 13 13 13 14 15 17 16
12 12 12 12 10 8 6 5 5 4 3 2 3 4 5 6 6 6 8 9 10 10 9 9 10 10 10 12 13 14 18 21 22 22 24 25 24 22 19 15 12 11 12 12 12 11 11 11 11 10 9 9 10 11 11 12 12 12 13 14 15 15 15
13 12 11 10 8 6 4 4 3 3 2 2 2 3 3 5 7 8 8 8 10 12 12 11 11 11 10 9 10 11 14 17 18 18 19 20 18 15 12 11 11 11 11 11 10 10 11 11 11 10 10 10 10 10 10 10 11 11 12 12 13 13 14
11 10 8 7 6 5 4 4 4 5 5 6 5 5 5 6 8 9 10 10 11 12 13 14 13 12 11 8 7 8 11 14 15 16 15 14 12 11 9 9 10 10 10 10 10 11 12 12 11 9 8 9 9 9 9 10 11 11 12 13 14 16 18
11 10 8 6 6 7 6 6 6 6 7 7 7 7 8 8 8 9 10 11 11 12 13 15 15 14 12 8 6 7 12 15 15 15 13 12 12 12 12 10 9 9 9 9 9 10 10 9 8 6 6 6 8 10 11 13 15 16 17 18 19 19 21
9 9 9 9 9 9 8 8 8 8 8 8 8 9 11 11 11 12 11 11 12 12 13 15 16 14 11 9 8 10 15 17 16 15 15 15 12 11 11 10 9 9 10 10 9 8 6 5 5 5 6 8 10 12 13 14 15 16 17 17 17 17 17
5 6 7 8 9 9 9 10 10 10 9 9 9 10 12 13 14 14 13 12 12 13 14 15 14 12 11 12 12 14 16 18 18 18 17 15 12 10 10 10 10 10 10 9 8 6 4 5 6 7 8 10 11 12 13 13 13 13 15 16 16 16 16
4 4 5 6 7 9 11 12 12 12 12 11 11 11 12 13 14 14 12 11 12 12 14 14 13 14 15 15 16 16 16 17 18 18 17 15 13 13 12 11 10 9 7 6 4 3 4 6 7 8 8 9 9 9 10 11 12 12 14 16 16 17 17
8 8 8 9 10 11 12 13 14 13 12 12 11 11 12 13 12 11 11 10 10 11 12 13 13 15 16 16 15 15 14 15 15 15 16 15 14 13 12 10 9 7 4 1 2 4 6 7 7 6 6 7 7 7 8 9 11 13 14 16 17 18 18
10 10 10 10 11 11 12 12 13 13 12 12 12 12 12 11 10 10 10 9 9 9 11 13 14 14 15 14 14 13 13 14 14 14 14 14 12 11 10 8 6 3 0 3 4 5 5 4 4 4 5 5 5 6 7 9 11 14 16 17 18 19 19
12 11 10 11 12 14 14 14 14 14 14 14 14 13 12 10 9 10 10 9 9 10 13 15 14 14 15 14 14 14 13 14 13 12 11 10 9 9 8 5 3 1 2 3 3 2 2 2 2 3 4 5 5 7 9 12 13 14 16 17 18 19 20
Wind_Direction
154 151 153 152 151 150 147 145 142 135 132 131 129 125 135 145 137 128 134 146 144 137 134 131 126 125 122 121 129 144 169 183 196 201 188 184 190 193 196 197 177 127 111 108 132 136 123 140 333 13 22 348 322 315 290 264 269 278 276 277 280 279 290
158 155 154 153 153 153 149 148 148 145 142 138 133 124 125 136 134 128 131 138 140 139 136 131 129 129 126 123 123 124 130 143 158 165 157 163 180 179 178 177 157 126 111 97 105 120 100 94 295 335 2 7 9 12 3 317 285 286 287 287 286 284 292
162 159 157 154 153 153 150 149 151 151 150 148 141 129 124 128 128 126 127 131 137 140 138 133 132 130 127 123 122 122 124 123 124 126 125 128 136 142 149 150 139 128 113 88 82 94 96 92 90 355 351 10 16 21 28 18 351 334 315 300 287 282 286
165 161 159 158 157 157 154 152 153 152 151 149 145 138 131 130 128 124 121 121 129 138 141 142 145 144 142 136 127 126 129 125 120 118 116 114 115 116 120 124 120 115 110 97 87 88 90 85 78 13 348 7 4 358 10 21 37 43 37 18 354 336 340
168 165 162 162 163 162 159 156 155 154 151 149 148 143 138 137 136 130 124 119 119 123 126 130 135 142 147 150 144 135 133 131 129 129 123 119 118 114 110 110 111 107 101 96 92 87 87 89 95 85 7 7 353 352 11 44 65 66 64 61 59 56 50
172 171 168 167 168 168 165 163 161 160 157 154 152 149 147 147 146 139 131 123 118 117 117 117 119 125 133 146 151 148 143 142 143 144 135 126 123 115 109 108 109 107 97 90 89 90 93 96 87 67 21 10 354 343 5 39 68 73 62 53 52 52 48
178 177 175 174 174 174 174 172 171 168 163 159 155 152 153 154 151 145 138 131 126 124 125 126 126 126 127 133 141 145 145 146 146 143 134 126 119 111 110 110 105 99 94 87 87 87 84 79 69 49 21 10 358 354 3 17 44 61 46 36 34 33 33
183 183 179 178 179 180 180 179 179 175 165 159 157 154 154 157 156 152 149 144 139 135 134 135 134 132 129 127 128 130 132 136 140 136 129 125 119 110 102 101 101 96 83 71 68 71 75 77 71 56 44 43 11 353 357 5 31 47 31 22 15 12 14
187 188 184 182 183 185 184 184 185 179 167 161 159 157 156 159 160 160 158 153 149 148 143 138 133 132 132 128 125 122 119 123 130 131 129 125 118 111 100 89 92 95 78 69 67 68 88 96 82 62 50 60 67 16 347 350 7 40 21 14 5 357 1
191 192 188 187 188 187 186 189 190 183 173 166 163 161 161 161 161 163 163 159 156 155 152 148 142 138 138 135 131 125 121 120 123 126 129 127 119 114 105 89 84 93 89 80 77 77 86 91 82 60 35 43 63 70 63 347 322 268 3 8 2 349 353
196 195 192 192 192 191 190 191 191 187 180 174 169 166 165 165 165 165 165 165 163 161 159 160 158 153 151 148 142 135 131 131 128 124 125 129 129 126 116 97 82 90 95 86 81 79 76 69 56 43 28 27 33 43 96 340 313 297 345 353 354 350 351
197 196 194 193 196 196 194 193 194 192 187 182 179 174 172 172 171 169 168 168 170 171 171 172 172 170 166 163 157 149 149 153 145 134 129 133 139 144 134 108 83 82 93 92 94 87 64 48 30 19 16 16 11 5 2 346 283 307 333 340 344 348 350
194 196 195 196 198 200 199 198 197 197 192 190 188 183 180 179 177 176 173 172 176 178 178 180 184 185 181 181 179 171 172 183 176 155 148 145 146 153 152 127 98 83 89 104 121 107 59 40 24 10 9 10 9 1 354 351 285 294 322 337 339 342 345
191 195 198 201 202 202 203 203 201 200 198 196 196 192 188 185 183 182 180 180 182 184 186 187 191 195 194 195 197 191 190 197 197 185 186 184 164 163 169 158 141 114 91 90 136 150 84 54 41 35 46 49 33 18 4 0 336 310 321 335 338 339 340
189 195 200 206 207 205 205 205 203 202 202 201 202 201 198 194 190 187 186 187 187 189 192 193 195 198 199 202 204 204 205 209 209 206 210 217 204 195 206 197 185 187 137 53 77 163 139 48 24 25 45 49 25 15 4 358 352 334 326 330 334 336 339
188 192 197 206 209 206 204 205 205 205 206 206 207 208 208 204 200 199 198 198 198 197 198 198 199 200 202 206 208 210 213 216 217 216 218 224 221 216 220 224 227 229 235 308 358 128 121 4 353 359 8 1 352 351 348 345 347 346 334 329 331 335 338
189 190 193 204 207 203 201 204 207 209 209 210 211 212 213 210 208 208 209 210 211 211 210 207 206 207 208 211 213 215 216 217 219 221 222 226 226 225 227 226 232 238 245 268 291 300 287 304 316 324 330 330 331 332 334 336 338 341 339 333 331 333 336
195 193 192 196 195 194 200 204 207 212 214 215 216 215 214 214 214 215 215 216 217 220 221 219 217 218 218 218 219 221 221 220 221 223 226 228 228 231 235 234 234 237 242 254 263 268 274 286 299 306 312 320 326 331 330 332 334 336 339 339 334 332 334
196 195 195 194 186 191 203 206 204 208 214 220 223 219 215 216 218 219 221 222 223 225 226 224 225 229 230 227 224 224 225 225 226 226 228 229 228 230 234 234 231 231 235 242 245 253 268 278 287 298 310 319 326 329 328 328 332 336 340 343 341 338 341
195 193 194 193 191 198 208 212 212 210 212 221 224 220 217 219 222 224 226 226 228 230 228 226 228 232 235 235 231 229 228 228 228 228 228 230 228 227 230 231 225 224 228 235 240 247 258 266 276 289 301 312 320 324 324 325 331 336 342 346 348 347 346
198 197 200 203 206 214 223 227 224 219 216 219 221 217 214 216 220 225 230 232 232 233 231 228 229 233 236 237 237 235 234 231 230 229 229 230 228 224 226 227 221 219 223 232 240 246 252 258 266 273 283 299 312 317 318 322 329 337 344 348 350 349 344
201 205 211 217 219 224 231 231 227 228 229 228 230 232 230 229 231 231 231 232 232 232 231 230 232 236 239 241 240 238 236 235 233 230 229 228 226 223 224 223 217 217 224 232 240 246 250 254 257 259 273 296 308 312 312 314 323 333 339 342 342 342 339
204 207 211 215 219 222 228 230 232 239 243 241 242 246 248 249 248 243 239 237 237 237 238 240 244 248 248 247 244 240 238 237 234 231 229 226 222 220 220 219 217 219 226 232 239 247 253 255 255 259 278 298 306 305 302 304 310 320 327 330 330 331 329
196 202 207 212 217 221 226 229 232 236 241 244 248 251 254 255 253 251 250 249 249 249 250 254 257 258 255 251 249 245 242 239 236 231 228 225 220 216 216 216 218 221 226 230 237 248 256 258 260 269 288 302 304 297 290 288 290 297 301 303 309 315 315
196 202 207 211 216 220 227 231 229 230 234 238 244 250 255 257 259 263 264 265 266 267 269 272 270 266 260 255 253 251 247 243 238 232 227 224 220 217 215 213 213 217 224 232 241 249 254 257 265 277 291 298 296 291 287 283 282 283 284 286 291 298 302
198 204 208 211 217 221 229 234 233 234 236 237 243 248 250 252 258 263 266 268 275 282 289 293 287 280 274 266 258 254 251 246 240 233 228 223 220 217 213 207 206 211 222 233 241 246 248 253 263 271 279 286 288 287 286 283 282 282 282 282 284 292 301
203 204 196 186 183 180 182 192 198 207 217 226 238 242 243 248 254 257 260 264 271 284 296 297 291 287 284 278 270 261 255 249 242 236 230 223 218 214 208 204 205 212 225 235 237 239 243 250 256 261 267 275 281 283 281 280 281 280 282 284 286 292 300
186 180 171 165 163 159 156 160 163 163 158 164 217 239 247 259 269 277 279 276 277 285 296 296 291 288 286 284 280 270 257 249 242 236 229 221 214 209 205 206 216 225 231 234 234 235 241 247 250 255 264 272 274 275 273 272 272 274 277 280 283 287 292
168 165 166 168 173 179 188 197 201 210 218 224 249 271 280 284 289 294 293 285 278 277 281 285 285 283 282 284 282 267 249 239 231 220 211 204 199 198 203 212 219 222 221 222 226 234 241 244 247 252 259 263 263 262 261 264 268 272 276 278 281 286 290
175 172 174 176 181 195 212 227 240 251 257 263 266 271 280 287 289 285 279 277 277 274 273 275 274 273 273 276 276 253 229 215 203 190 183 181 182 186 195 205 207 207 208 214 227 237 241 243 244 245 247 251 256 261 265 271 276 279 280 282 284 287 289
188 185 186 186 191 202 213 223 238 251 259 266 271 279 288 292 294 290 281 276 274 275 275 271 268 268 268 269 261 223 199 186 175 166 162 165 176 185 186 189 200 210 217 225 233 237 237 237 237 239 250 264 278 286 289 291 292 292 291 291 291 291 291
195 192 191 192 195 204 219 234 246 252 256 262 272 284 293 298 302 301 295 286 276 272 272 268 262 257 252 245 228 204 189 178 168 163 164 165 170 183 192 199 211 222 227 229 231 233 236 243 252 268 285 295 303 306 306 307 308 309 308 307 308 309 308
191 192 194 202 212 227 246 256 255 254 254 260 275 286 292 301 308 306 299 288 273 264 261 257 246 231 219 213 206 198 191 184 176 171 173 176 180 187 193 199 204 210 215 217 219 230 250 273 287 297 305 310 315 316 316 319 323 326 326 325 324 322 321
247 249 252 255 262 264 264 261 257 255 256 262 272 280 287 300 307 302 292 278 261 249 245 240 225 205 199 199 198 196 190 183 179 177 176 182 189 187 183 182 181 182 189 195 209 256 289 303 309 314 318 322 327 329 329 329 332 332 330 327 325 323 320
273 280 284 286 287 281 271 263 257 255 256 259 265 273 284 296 296 286 274 262 246 230 220 215 206 196 194 194 194 195 187 177 178 182 177 173 176 175 169 166 164 161 166 195 310 319 319 324 326 330 336 339 339 337 332 329 329 327 325 324 323 321 319
281 284 284 284 285 284 279 269 260 255 255 260 268 274 278 279 271 261 254 244 229 209 194 190 188 186 186 185 183 182 177 168 170 178 174 165 162 161 156 153 153 148 91 338 337 337 335 341 347 352 353 348 336 327 323 323 324 324 323 322 321 320 320
274 274 274 277 282 286 286 281 274 268 265 267 271 270 265 257 245 235 231 223 205 186 179 178 179 179 179 178 174 173 171 167 166 172 171 158 149 148 147 144 139 81 351 341 346 358 6 7 359 348 341 334 327 325 328 330 330 327 325 323 321 319 318